Theta_e
347 347 348 348 348 348 348 348 348 348 347 347 347 347 346 345 345 343 341 340 341 342 343 344 344 345 345 346 345 345 346 346 346 346 347 347 348 348 348 348 349 347 344 341 338 334 331 329 328 328 329 331 331 327 323 320 320 322 325 328 330 331 332 332 332 331 331 331 331 332 333 333 333 334 335 335 336 336 336 336 336 337 337 337 337
348 348 348 348 349 349 348 348 348 348 348 348 347 347 347 345 344 343 340 341 344 345 346 346 345 345 345 344 344 344 346 345 345 346 347 348 348 348 349 349 347 344 341 339 336 332 329 328 326 326 327 326 324 321 320 321 323 327 329 332 333 334 334 334 333 333 332 332 331 330 331 333 334 333 335 336 335 334 334 334 335 336 336 336 336
348 348 348 348 349 349 349 348 348 348 347 348 347 348 347 345 344 344 343 344 347 347 347 347 347 347 346 345 346 346 347 346 346 347 348 349 348 348 350 349 345 342 339 337 333 331 329 329 329 329 327 324 321 321 322 325 328 330 331 333 334 333 333 333 333 332 332 332 331 329 330 331 332 333 335 334 333 333 334 334 334 334 334 335 335
348 348 347 348 348 349 349 348 348 348 347 348 347 347 348 346 345 345 345 346 347 347 348 347 348 349 348 348 348 348 347 346 346 346 348 348 347 348 350 348 345 342 338 334 332 331 331 332 331 329 326 323 323 324 326 328 330 331 332 333 333 333 333 333 332 331 331 331 331 330 331 331 333 333 332 332 333 334 334 333 333 332 333 333 334
347 348 347 347 348 348 348 347 347 347 347 347 348 347 348 347 346 345 346 347 347 347 348 348 349 350 349 349 348 346 344 344 344 344 344 344 345 348 348 347 344 340 336 333 332 332 332 331 328 326 325 325 326 326 327 328 329 330 332 333 333 332 331 331 331 331 331 331 331 331 332 333 333 332 330 333 334 333 332 332 331 331 331 331 332
346 347 346 346 347 347 346 346 346 346 346 346 347 347 347 347 346 345 346 347 348 348 348 349 349 349 348 347 345 343 343 341 341 341 341 344 345 346 345 343 341 336 334 333 333 332 329 325 323 323 324 326 328 327 326 327 329 330 331 332 331 330 330 330 331 331 331 331 331 332 332 332 332 332 332 333 332 330 331 331 330 330 329 329 329
346 346 346 346 346 346 345 345 345 345 345 346 347 347 347 347 347 346 346 347 348 348 349 349 350 349 348 346 344 343 342 342 341 342 343 345 345 344 342 339 335 333 333 333 332 329 324 320 320 322 324 326 327 327 326 327 329 331 331 331 330 330 330 330 330 331 331 331 331 331 331 331 331 332 332 332 331 329 329 329 328 328 327 327 325
345 344 345 346 346 346 345 345 345 344 346 346 346 347 347 346 347 347 347 347 347 347 348 349 349 349 347 346 345 344 343 344 345 344 344 343 343 342 338 334 332 332 333 332 329 323 319 319 320 322 324 325 326 326 325 326 329 331 331 330 330 330 330 329 328 329 329 330 330 330 331 331 331 331 331 331 331 329 327 327 328 326 323 322 320
345 344 345 346 346 346 346 346 345 345 346 346 346 346 346 347 347 347 347 347 347 346 345 346 347 347 346 346 346 345 345 346 346 345 344 343 341 337 332 331 332 331 329 327 323 319 318 319 321 323 325 325 325 325 325 326 328 329 330 330 330 330 329 328 327 327 328 329 330 330 330 329 330 330 329 329 329 328 326 326 326 325 323 321 318
344 344 345 347 346 346 346 347 346 346 346 347 346 346 346 347 347 347 348 348 347 345 343 343 344 344 344 344 345 345 345 345 343 341 342 341 337 331 327 328 329 326 323 321 318 317 317 319 321 324 326 326 325 326 326 326 326 327 329 330 330 330 329 328 328 327 328 329 329 329 328 328 328 328 328 328 327 327 325 325 325 324 323 321 318
344 344 346 347 347 347 347 347 346 346 347 347 346 346 347 347 347 348 348 348 346 343 342 342 342 342 342 343 343 343 344 343 337 333 332 331 327 324 323 324 323 320 319 317 316 316 317 319 322 325 326 326 326 326 325 326 326 327 329 330 330 329 329 328 328 328 328 328 328 327 326 327 327 327 327 326 326 325 325 324 324 324 322 321 319
344 345 346 347 347 347 347 347 347 346 347 347 347 346 347 347 347 348 349 348 344 341 341 342 342 342 342 343 342 340 340 337 330 325 323 321 319 319 320 319 318 317 316 316 316 316 317 319 323 325 325 325 325 325 325 325 325 326 328 329 329 328 328 327 327 327 327 328 327 326 326 326 327 327 326 326 325 325 325 325 324 322 322 321 319
345 345 346 347 348 348 348 348 347 347 347 347 347 347 347 347 348 349 349 347 343 341 342 342 343 342 343 342 340 338 335 329 324 322 321 318 318 318 317 316 315 315 316 316 317 317 317 320 324 325 325 325 325 324 324 324 324 327 328 328 328 327 327 326 326 326 326 327 326 326 326 326 327 327 326 326 325 325 325 325 323 321 320 321 320
345 346 346 347 347 348 348 348 347 348 348 348 348 347 347 348 349 350 349 345 341 341 341 342 343 343 343 342 339 334 329 323 320 319 318 318 317 316 316 315 315 316 316 316 317 317 317 320 324 325 325 325 324 324 323 323 324 326 328 328 327 326 326 326 325 326 326 326 326 326 326 326 326 326 326 326 325 325 325 324 321 320 320 320 320
346 346 346 346 347 347 348 348 348 348 348 348 348 348 348 348 350 351 347 343 341 341 341 342 342 343 344 342 339 334 326 320 318 318 317 317 316 316 315 315 315 316 316 317 317 317 317 320 323 325 325 324 324 324 323 323 323 324 326 326 326 325 325 325 325 326 326 326 326 326 326 326 326 326 326 326 325 324 325 323 321 319 319 319 320
345 347 346 347 347 347 347 348 348 348 348 349 348 348 349 349 351 350 345 341 341 340 341 342 342 343 343 342 338 332 324 320 318 317 316 316 315 315 315 315 315 316 316 316 316 316 317 320 323 324 324 323 323 323 323 323 323 323 324 324 324 324 325 325 326 325 326 326 326 326 326 326 326 325 325 326 326 325 324 323 321 319 318 318 318
346 347 346 347 347 347 348 347 348 348 348 349 349 348 349 350 351 349 343 341 340 340 341 342 343 343 343 342 337 328 321 319 318 316 315 315 315 316 316 315 316 316 316 316 316 316 318 320 322 323 322 322 322 321 321 321 321 322 323 323 324 325 324 325 325 325 326 327 327 327 326 326 326 325 325 326 326 326 325 324 322 319 318 318 317
345 346 346 347 347 347 348 347 347 347 347 348 347 347 348 349 350 347 343 341 339 339 341 342 343 342 342 340 333 324 319 319 318 316 315 315 315 316 316 316 316 317 317 317 317 317 318 320 321 322 323 322 320 319 319 320 320 321 322 322 323 325 325 325 325 326 326 327 327 327 326 326 326 326 326 327 327 327 326 326 324 321 319 318 317
344 346 346 347 348 347 348 348 348 347 346 347 346 347 348 349 349 346 342 341 339 340 342 343 343 342 341 337 328 321 320 319 317 316 315 315 315 316 316 316 317 317 317 317 318 319 319 319 321 324 324 322 321 322 324 324 325 325 325 325 324 325 325 326 326 326 327 327 327 326 326 326 327 328 328 329 329 329 328 327 326 325 323 322 321
344 345 346 347 348 348 348 348 347 346 345 347 348 347 347 347 347 344 342 341 341 341 342 343 344 343 342 340 331 321 320 320 317 316 315 315 315 316 316 317 317 317 317 318 320 321 321 321 324 326 326 324 325 326 327 327 327 328 328 328 327 326 326 326 327 328 328 328 327 327 325 325 325 326 326 327 328 328 329 329 328 328 327 326 325
342 344 345 346 347 348 348 348 348 347 346 347 349 348 346 346 346 343 342 341 341 341 342 343 344 344 343 343 336 325 320 321 320 317 316 315 316 316 317 318 318 318 318 318 321 322 322 325 327 327 327 327 328 327 328 328 328 328 329 329 329 328 327 326 326 327 329 329 329 327 325 324 324 324 323 323 324 326 328 329 329 329 329 328 328
341 342 343 345 346 347 348 348 349 349 348 348 348 348 347 346 346 344 342 341 340 340 341 343 344 344 340 338 333 325 321 322 321 319 317 316 316 316 317 318 318 318 318 319 321 323 324 327 327 327 328 328 328 328 328 328 328 329 329 330 330 329 328 326 325 325 327 329 329 327 325 324 324 323 322 321 321 322 325 327 329 329 328 328 328
340 341 342 343 345 346 347 348 349 349 348 346 347 348 347 346 346 345 342 340 340 341 341 343 344 344 342 337 330 324 322 323 322 320 317 316 316 316 317 318 318 318 318 319 322 324 326 327 327 327 327 327 327 328 328 328 328 328 329 329 330 330 329 328 326 325 327 328 328 326 325 324 323 322 320 320 320 320 321 323 325 326 327 327 327
339 340 342 342 344 346 346 348 348 348 348 347 347 348 347 347 347 346 344 341 340 342 343 343 344 344 344 342 333 324 322 323 323 321 318 316 317 317 317 318 318 318 318 319 323 325 327 327 327 326 327 326 327 327 328 328 328 328 328 328 329 329 329 329 327 326 327 328 327 326 325 324 323 321 320 320 320 320 319 320 321 322 324 326 327
339 340 341 342 343 345 345 346 347 346 346 346 347 348 348 347 347 346 346 343 342 344 344 344 346 345 344 343 335 326 323 323 323 321 319 317 317 317 317 318 318 318 318 320 323 325 326 326 325 325 326 326 327 328 328 328 328 329 328 328 328 328 328 328 327 327 327 327 327 327 326 325 323 323 321 320 320 321 320 320 320 320 322 325 327
339 339 341 342 343 344 344 345 345 345 346 346 347 348 348 347 347 347 348 346 345 345 345 346 347 346 347 344 335 326 323 324 324 322 319 317 317 317 317 318 318 318 319 321 323 324 324 324 323 324 326 327 328 328 328 328 329 329 329 328 327 327 327 327 327 327 327 328 328 328 326 325 324 323 321 320 321 321 321 320 320 320 322 324 325
339 339 340 342 342 343 344 344 345 345 345 346 346 347 347 347 347 348 348 349 348 346 346 346 347 348 347 344 340 335 328 324 325 323 319 318 317 316 318 321 321 319 319 321 322 321 321 321 322 323 326 327 327 327 327 328 328 329 328 327 325 324 325 325 325 326 328 329 328 327 326 325 325 324 322 321 321 321 321 320 320 321 321 322 322
339 339 339 341 341 342 343 343 344 345 345 346 346 346 347 347 347 348 349 351 351 349 348 347 347 350 349 347 347 344 333 327 326 324 320 318 317 317 320 323 324 321 319 320 321 321 320 321 322 323 325 325 325 325 326 327 328 328 326 324 323 322 323 323 324 326 327 328 328 327 325 325 326 325 324 323 322 321 321 320 320 320 320 321 320
339 339 339 340 340 341 342 342 343 344 344 345 346 346 347 347 348 349 350 351 351 351 350 349 350 351 348 346 346 340 330 328 327 323 321 320 317 317 321 324 324 321 320 320 320 321 320 321 322 323 323 324 323 323 324 325 326 326 324 323 322 322 322 322 324 326 326 326 326 325 325 325 326 327 326 325 324 322 321 321 320 320 320 319 319
339 340 339 339 340 340 341 341 342 342 343 344 344 346 346 346 347 349 349 351 351 351 352 351 349 346 344 346 344 334 327 328 324 320 321 321 318 318 321 325 325 322 320 320 321 321 321 321 321 322 322 322 322 322 323 324 324 324 323 323 323 322 322 322 323 324 325 325 325 325 326 326 327 327 327 327 326 324 322 321 321 320 320 319 319
340 340 340 340 340 340 340 340 341 340 341 342 343 344 345 346 347 347 349 350 350 352 352 349 346 345 346 347 343 333 328 327 322 321 324 322 318 318 322 326 326 322 320 320 321 321 321 321 321 321 321 321 322 322 322 323 323 323 323 323 324 324 324 324 324 324 324 325 326 326 326 326 326 327 327 327 326 325 323 321 321 321 321 320 320
339 340 340 340 339 339 339 338 339 340 340 340 342 343 344 345 345 346 348 350 351 352 351 349 348 348 348 347 342 333 329 328 324 322 325 323 319 319 323 326 325 322 320 320 321 322 321 321 321 321 321 321 321 322 322 323 323 323 323 324 324 325 326 325 325 325 325 326 327 327 327 326 326 326 327 327 326 325 324 322 321 321 321 321 321
340 340 340 339 338 337 337 338 338 339 339 339 341 342 343 343 344 346 348 351 352 352 351 350 349 348 346 345 342 334 329 328 325 325 328 325 320 320 324 327 324 322 321 320 321 322 321 321 322 321 321 321 321 322 323 323 323 323 324 326 326 327 327 326 326 326 326 327 327 327 327 325 324 325 326 326 326 326 324 323 321 321 321 322 321
340 340 339 339 338 338 338 338 338 338 338 339 341 342 342 344 345 347 349 351 351 351 351 350 349 347 345 345 343 336 331 327 325 326 327 325 321 321 325 327 325 322 321 320 321 321 321 322 322 321 321 321 321 322 323 324 323 323 325 327 328 328 328 328 327 326 327 327 327 327 327 325 323 324 324 325 325 325 324 322 320 320 320 321 321
340 339 339 339 338 337 337 337 337 338 339 341 342 342 344 346 347 349 350 351 351 351 351 350 349 348 346 345 344 341 338 332 325 325 327 327 326 324 326 329 326 321 320 321 321 321 322 322 322 322 321 321 321 322 323 324 324 325 326 327 328 328 328 328 327 326 327 327 327 327 326 325 323 323 323 324 325 324 322 320 320 320 320 320 321
338 339 338 338 337 337 338 338 339 340 341 342 343 344 346 347 349 350 351 352 351 351 351 350 349 349 348 347 345 344 343 336 327 326 328 328 327 328 329 330 326 321 320 321 320 321 322 322 323 322 322 322 321 321 323 323 325 326 327 327 326 326 327 327 327 327 328 328 328 327 326 325 324 323 323 324 324 322 320 320 319 319 319 320 320
338 339 339 339 338 338 338 337 337 336 336 338 341 344 347 348 349 351 352 352 352 351 351 351 351 351 349 349 347 345 343 337 329 328 330 328 329 332 331 329 326 322 321 321 322 323 324 326 327 327 327 326 324 322 323 324 325 327 328 328 327 326 326 327 327 327 328 328 328 327 327 326 324 323 324 324 323 322 321 319 318 318 318 319 320
338 338 338 337 336 335 334 333 333 333 333 334 336 341 346 348 349 351 352 352 352 352 352 352 352 351 349 348 346 344 342 336 330 330 333 331 331 333 331 329 328 326 323 324 326 327 329 331 331 330 330 329 326 324 324 325 326 327 328 329 330 329 328 328 328 328 328 328 327 326 326 325 324 324 324 324 323 322 320 318 316 317 318 318 319
337 336 334 334 333 334 333 334 334 334 334 333 334 338 342 346 348 350 351 352 352 352 352 352 352 351 350 348 346 344 343 337 332 331 334 333 332 332 331 331 332 330 327 327 329 330 332 333 333 332 331 330 329 327 327 327 328 328 328 329 330 331 330 329 329 329 329 328 326 325 324 324 324 325 325 324 323 320 318 317 316 317 317 318 320
333 333 333 333 334 334 335 336 335 335 335 333 334 336 339 343 347 349 350 350 350 351 351 352 351 350 350 348 346 345 343 338 332 332 334 334 332 332 332 332 333 333 331 331 332 333 335 335 335 335 334 334 333 333 332 332 332 332 332 331 332 333 333 331 330 330 329 328 326 325 324 324 324 325 325 323 321 319 318 317 316 316 318 320 320
332 334 334 334 335 334 334 336 337 337 335 333 334 335 337 342 345 347 348 349 350 350 350 351 350 349 349 348 345 345 343 338 333 333 335 335 333 332 333 334 334 334 334 335 336 337 337 338 339 339 338 337 336 335 334 334 333 333 334 334 333 332 331 330 329 328 328 327 325 324 323 324 325 325 325 322 320 318 317 316 316 317 319 320 321
333 335 334 334 335 335 336 338 338 338 336 334 334 335 337 341 342 344 347 348 349 350 349 349 349 348 348 346 344 344 344 340 336 334 335 335 333 332 333 335 336 336 337 338 339 339 339 340 340 338 337 336 336 335 334 333 333 333 333 333 332 330 329 327 327 327 327 327 325 324 324 324 325 325 324 321 319 318 317 316 316 318 319 320 321
338 338 337 336 338 339 341 341 340 338 337 335 335 337 338 340 341 344 348 349 349 348 348 348 347 347 346 344 342 344 343 340 338 338 338 337 334 332 334 336 338 338 339 339 339 339 339 338 337 335 333 332 332 332 332 333 333 333 333 332 331 329 327 326 326 326 327 327 326 324 324 324 325 325 323 321 319 317 316 316 317 319 320 321 321
339 339 337 336 337 339 342 342 338 337 337 337 339 341 342 343 345 348 349 349 349 348 347 346 346 346 345 343 341 341 340 339 339 339 339 338 335 333 335 338 339 339 339 338 338 337 336 335 333 331 329 329 329 329 331 333 333 332 332 331 330 328 326 325 325 326 327 327 326 325 325 325 325 324 322 320 318 317 316 315 317 319 321 321 322
336 337 338 337 337 340 342 342 339 339 340 342 343 344 345 346 348 350 350 350 348 347 345 344 344 343 343 341 340 339 339 339 340 339 338 336 334 335 338 340 339 337 335 334 334 334 332 331 330 329 327 327 327 328 330 331 331 331 331 329 328 327 326 326 327 327 327 326 326 326 326 325 325 324 322 320 319 318 316 316 317 320 321 322 322
337 338 339 339 339 340 341 342 341 342 344 345 345 345 345 346 349 350 349 348 346 345 343 342 341 341 341 340 339 338 338 339 339 338 336 335 336 339 340 337 333 330 328 327 328 329 329 329 329 328 327 327 327 327 327 328 328 329 329 328 328 329 329 328 328 327 327 326 326 326 326 325 325 324 322 320 319 317 317 318 320 322 322 322 321
337 339 341 340 341 342 341 342 344 345 346 346 346 346 346 348 350 349 346 345 343 341 340 339 340 339 338 338 337 336 336 336 336 335 335 337 340 342 339 331 324 322 323 323 325 326 328 329 328 328 328 328 327 326 326 327 327 328 328 328 329 329 329 328 326 326 326 326 326 325 325 325 324 323 320 318 316 316 318 320 322 322 321 320 319
330 334 338 341 344 344 343 344 346 348 348 348 347 347 348 350 349 346 343 342 341 339 338 337 338 337 336 336 335 334 332 332 332 334 337 340 342 339 332 324 320 320 321 323 325 327 328 329 328 328 328 327 327 326 327 327 327 327 327 327 328 328 328 327 326 325 325 325 325 325 325 323 322 320 318 317 316 318 320 322 321 321 320 319 318
327 328 331 336 340 341 343 347 349 350 350 349 348 347 347 348 346 343 341 340 339 338 336 336 336 336 335 334 333 332 331 332 335 340 342 342 341 337 328 323 322 322 323 324 325 327 328 328 328 328 328 327 326 326 326 325 325 325 325 326 327 327 326 325 325 325 325 325 324 324 323 321 319 317 316 317 318 320 321 320 320 319 318 318 317
329 329 331 335 338 340 344 347 349 350 349 348 346 344 345 345 344 342 340 339 338 337 335 335 336 336 335 336 336 337 338 339 339 340 338 334 332 329 325 323 323 324 324 325 325 327 327 328 328 327 327 327 326 325 324 324 324 323 323 324 325 325 324 325 326 326 325 324 324 323 321 319 317 316 316 317 319 319 319 318 318 318 317 316 316
327 327 331 336 338 339 341 344 346 347 347 346 344 342 344 344 342 340 339 338 338 337 336 336 335 332 332 334 334 335 337 335 330 328 326 322 320 322 323 325 325 325 325 325 326 327 327 327 327 327 327 325 324 323 322 322 322 323 323 324 324 323 324 325 325 325 323 323 322 321 319 318 317 316 316 317 318 318 318 317 317 316 315 315 314
Wind_Speed
32 32 32 31 31 30 29 28 26 26 24 23 21 20 19 19 19 21 22 22 21 21 20 20 21 21 21 20 19 18 17 17 16 14 13 13 12 13 13 13 12 12 11 11 11 11 11 10 10 10 11 11 13 14 15 14 12 10 8 8 9 9 10 11 11 12 11 11 10 9 9 9 8 7 7 7 7 8 8 8 8 8 9 10 11
33 34 34 33 33 32 31 30 29 29 27 26 25 22 20 19 19 20 21 22 22 21 20 20 20 20 19 18 17 16 16 16 16 14 13 13 14 14 14 12 13 12 12 12 12 12 11 11 12 12 12 13 13 13 11 9 7 6 6 7 8 8 8 9 9 10 10 10 10 8 6 5 5 6 4 4 5 7 8 9 8 8 8 8 10
36 36 36 35 34 33 33 33 32 30 29 28 26 24 22 22 21 21 22 23 22 20 19 19 18 17 16 15 14 15 16 16 16 15 15 15 15 15 14 13 13 13 13 13 13 12 12 13 13 13 13 13 12 9 7 6 6 6 6 6 7 7 7 7 7 8 9 10 10 9 8 6 4 3 2 5 7 7 6 7 8 9 9 9 9
37 37 38 37 36 35 35 35 34 32 31 30 29 27 26 25 23 22 23 23 22 21 19 18 16 15 15 15 15 16 17 17 17 17 18 18 17 16 15 15 15 15 15 14 13 13 14 14 14 14 13 11 8 6 6 5 6 5 5 5 5 6 6 6 6 7 7 8 8 9 9 7 4 4 7 7 5 4 5 7 8 9 9 10 10
38 39 39 38 38 38 36 36 35 34 34 33 31 29 28 26 24 23 23 23 23 22 20 19 18 17 17 17 17 18 18 19 19 19 19 19 18 17 16 16 16 16 15 14 14 14 14 14 13 12 10 8 6 5 5 5 5 6 5 5 5 5 6 6 5 5 6 6 7 7 6 6 6 9 11 7 3 6 7 7 8 9 9 9 10
39 39 39 38 38 38 37 37 37 36 35 33 32 30 28 26 24 23 23 23 23 22 21 21 20 20 19 20 20 21 21 20 19 19 19 19 18 17 16 16 16 16 15 14 14 14 14 13 12 10 8 7 6 5 6 6 6 6 5 5 5 5 6 6 5 5 5 5 5 5 5 6 9 11 10 7 7 8 6 6 8 9 9 9 9
39 39 39 38 38 39 39 38 38 37 35 33 32 32 29 27 25 24 23 22 22 23 23 23 23 22 21 21 22 22 22 20 19 18 19 18 17 16 16 16 15 14 14 14 14 14 14 13 11 10 8 7 6 6 6 6 5 5 5 5 5 5 5 5 5 5 5 5 5 5 5 6 8 9 9 10 10 8 6 7 8 7 7 7 7
40 40 40 40 40 40 40 40 39 37 34 33 34 33 31 28 26 24 23 22 22 23 24 25 25 24 23 23 23 23 22 20 19 18 18 17 16 16 16 16 14 14 14 14 15 14 13 12 11 10 9 7 6 6 6 6 5 5 5 6 6 5 5 5 6 6 6 6 5 5 5 6 6 7 8 8 9 11 10 7 6 5 4 5 8
42 43 44 43 42 41 41 40 39 37 35 35 34 33 32 30 28 26 24 24 23 24 25 25 25 25 24 24 24 23 21 20 19 18 17 17 17 17 17 16 15 15 15 15 15 13 12 11 11 9 8 7 6 6 6 6 5 6 6 6 6 5 6 6 7 7 7 6 6 5 5 6 6 6 7 7 8 11 11 9 8 4 2 5 8
43 45 45 45 43 41 40 39 39 38 37 35 34 33 33 31 30 28 26 25 24 25 25 25 26 25 25 25 25 23 21 20 20 18 18 18 18 18 17 16 16 16 16 15 14 12 11 11 10 9 7 6 6 6 6 6 7 8 7 6 6 6 6 7 7 7 7 6 6 6 5 5 6 6 6 6 6 8 10 10 11 9 7 7 8
43 44 45 45 44 42 41 40 40 39 37 36 36 35 34 33 32 30 28 26 26 26 26 26 27 27 27 26 25 22 21 21 20 19 19 19 18 18 17 16 16 16 16 15 13 12 11 11 9 8 7 6 6 7 7 7 8 8 8 7 7 7 7 7 7 7 7 7 6 6 6 5 6 6 6 6 7 7 9 10 10 11 11 10 9
44 44 45 45 44 43 43 42 42 41 40 39 37 37 36 35 33 32 30 29 28 28 28 28 28 28 28 26 24 22 21 21 21 19 19 18 18 17 16 16 17 16 15 14 14 13 11 10 9 8 8 7 7 7 7 8 8 9 9 8 8 8 7 7 7 7 7 7 7 7 7 7 6 7 8 8 8 9 10 11 10 11 13 12 11
44 45 46 45 45 45 45 45 44 43 42 41 39 38 38 36 35 33 32 31 30 30 30 30 30 30 28 26 24 22 21 21 20 19 19 18 17 17 17 17 17 16 15 14 13 12 10 10 10 9 8 8 8 7 8 8 9 9 9 9 8 8 8 8 8 8 7 7 8 8 8 8 8 8 9 9 10 11 12 11 10 11 13 14 14
45 46 47 47 47 47 47 46 46 45 44 43 41 40 39 38 37 35 33 32 32 32 32 32 32 31 28 26 24 23 22 21 20 18 18 17 17 17 17 16 16 15 14 13 12 12 11 11 10 10 9 9 8 8 8 9 9 10 10 10 9 9 9 9 9 9 8 8 8 8 9 9 9 10 11 10 11 12 13 13 13 13 13 14 15
46 47 48 49 49 48 48 47 47 46 45 44 43 42 41 40 38 36 35 35 35 34 34 34 33 31 29 26 25 23 22 21 20 18 18 17 17 17 17 16 15 14 13 13 12 12 12 11 11 10 10 9 9 9 9 9 10 10 11 11 10 10 10 10 10 9 9 9 9 10 10 10 10 11 12 11 12 12 13 14 15 15 15 16 16
45 47 48 49 49 49 48 48 47 47 46 46 45 44 43 41 39 38 37 37 36 36 36 35 34 32 30 27 25 24 23 22 21 19 19 18 17 17 16 16 15 14 14 13 13 12 12 11 11 10 10 10 10 11 10 10 10 11 11 12 11 11 11 10 10 10 10 11 11 11 12 11 11 12 13 12 12 13 14 15 16 17 17 18 18
45 48 49 49 49 49 49 48 48 48 47 46 46 45 44 43 41 39 39 39 38 37 37 36 35 33 31 29 26 25 24 23 22 20 19 19 18 17 16 16 16 15 15 13 12 12 11 11 11 10 11 11 11 11 10 9 10 10 10 11 11 11 11 11 11 11 11 11 13 13 14 13 13 13 13 13 13 14 15 16 17 17 18 19 19
46 47 49 49 49 50 50 50 48 47 46 46 45 45 45 43 42 41 41 41 40 39 38 37 36 35 33 30 28 26 26 24 22 20 19 19 18 18 17 17 16 15 14 13 12 12 11 11 11 10 10 10 9 8 7 7 7 7 7 8 9 10 11 11 11 12 12 13 14 14 15 15 14 14 15 15 16 16 16 17 18 19 20 20 20
44 46 47 47 48 50 51 50 49 47 46 45 45 45 46 45 43 42 42 42 41 40 39 38 37 36 34 31 29 28 27 25 23 21 20 20 19 18 17 16 15 15 14 13 12 11 11 12 11 10 9 8 7 6 5 4 4 5 5 6 7 9 11 12 12 13 13 14 15 15 16 16 15 15 16 16 17 18 18 18 18 20 21 22 23
44 45 46 47 49 51 51 51 50 48 46 45 46 46 46 45 45 44 44 43 42 41 41 40 38 37 35 32 30 29 28 26 23 22 21 20 19 18 16 15 15 15 14 12 11 11 13 13 11 10 9 8 8 7 6 6 6 6 6 7 7 8 10 11 12 13 14 16 17 17 17 16 16 16 17 18 19 19 19 20 20 20 21 22 24
44 45 47 48 50 51 51 52 51 49 47 47 47 47 46 46 46 46 45 45 45 44 42 41 39 37 35 33 31 30 29 27 24 22 22 21 18 17 15 15 15 15 14 12 11 12 14 13 11 11 10 10 10 9 8 8 9 9 9 9 10 10 11 11 11 13 15 16 17 17 17 16 16 17 17 18 19 20 20 21 21 22 22 22 23
45 46 47 48 49 50 50 50 50 49 48 48 48 48 48 48 47 47 47 46 46 45 44 42 40 38 37 34 33 31 29 27 25 24 23 21 18 16 16 16 16 15 14 13 12 13 14 13 12 12 11 11 11 11 11 11 12 12 12 12 12 13 13 13 13 13 14 15 16 17 17 16 16 16 17 17 19 20 21 22 22 23 24 24 23
43 44 46 47 48 48 48 49 49 49 49 49 49 50 49 49 48 48 47 47 47 46 45 43 41 40 39 36 34 32 31 29 26 25 24 21 18 17 16 16 15 14 14 14 13 14 14 14 14 13 13 12 12 12 12 13 14 14 14 14 14 15 15 15 15 14 13 14 16 17 17 16 16 16 17 17 18 19 20 22 23 24 25 25 24
41 43 44 44 44 45 45 47 48 48 49 50 50 51 51 50 50 49 48 47 47 47 45 43 42 41 40 37 35 34 33 31 28 27 25 21 18 17 16 15 14 14 15 15 15 15 15 15 15 15 14 14 14 14 14 15 15 15 16 16 16 16 17 17 17 16 14 14 15 16 16 16 16 17 17 17 17 18 19 20 22 23 24 26 25
39 40 40 40 42 43 44 46 47 48 49 50 50 51 51 51 51 51 50 48 48 48 47 45 43 42 41 39 36 36 35 33 30 28 25 21 18 18 16 14 14 15 15 15 16 16 16 16 16 15 14 15 15 16 16 16 16 17 17 17 17 18 17 18 18 17 16 16 16 17 17 16 16 17 17 17 17 18 19 20 21 22 23 25 25
38 38 38 39 40 41 43 45 45 46 48 48 49 50 50 50 51 51 50 50 50 50 48 47 46 44 43 41 40 39 37 33 30 28 24 21 19 18 16 13 13 15 16 16 16 16 16 16 15 15 15 15 16 16 17 17 17 18 18 18 18 18 18 18 18 17 17 16 17 17 17 16 17 18 17 17 17 18 19 20 21 22 23 24 26
36 35 36 37 38 40 41 42 43 44 45 45 46 47 48 49 50 50 50 51 50 51 51 50 48 46 44 43 43 40 35 31 28 26 24 20 19 19 16 12 12 14 16 16 14 15 16 16 16 16 16 16 16 16 17 17 18 19 19 19 18 17 17 18 17 17 17 17 17 17 17 17 17 18 18 18 18 18 19 20 21 22 23 24 26
32 33 35 36 37 38 38 39 40 40 41 42 43 45 45 46 48 48 49 49 50 51 52 51 50 50 47 44 41 35 29 27 26 25 24 21 21 21 17 11 11 14 17 16 14 15 17 17 17 18 17 17 17 17 18 18 19 19 19 19 18 17 17 17 17 18 18 17 17 17 18 18 18 18 19 19 19 20 20 20 21 22 23 25 26
33 34 35 35 35 35 36 36 36 37 38 39 40 42 44 45 46 46 47 48 48 49 51 51 52 48 40 35 33 29 25 26 27 27 25 23 22 22 18 13 11 13 17 18 17 17 19 19 19 19 18 18 18 19 19 19 19 19 19 19 18 18 18 17 18 18 17 17 16 17 17 18 19 20 20 21 21 21 21 21 22 22 23 25 25
36 36 35 34 33 33 33 33 33 34 35 36 38 40 41 43 44 44 45 46 47 48 48 45 39 33 30 31 31 29 28 29 29 29 27 24 24 24 21 15 13 14 18 20 20 20 21 21 21 20 19 19 19 19 19 19 19 19 19 18 18 18 18 17 17 17 16 15 15 16 17 18 20 21 22 23 22 21 22 23 23 24 24 25 25
36 35 34 32 32 31 31 31 30 30 31 33 35 36 38 40 41 43 43 45 46 44 41 38 33 32 36 37 34 32 32 34 33 31 30 27 26 27 24 17 15 18 22 23 22 23 22 22 21 21 21 21 20 20 19 20 20 20 19 19 18 17 17 17 17 16 16 15 16 17 18 19 20 22 23 24 23 22 23 23 25 25 25 25 26
34 34 33 32 31 29 28 26 26 27 28 29 30 33 35 36 37 39 41 42 42 39 39 40 41 41 43 41 39 36 34 35 36 34 31 29 28 29 26 19 18 22 26 25 24 24 24 23 22 22 22 22 22 21 21 21 21 20 20 20 19 18 18 19 18 17 17 17 17 18 19 19 21 22 24 25 24 23 23 24 25 26 27 27 26
34 33 32 32 30 27 24 23 23 24 24 24 27 29 30 30 32 35 37 39 38 38 40 42 41 40 40 39 39 36 31 32 38 36 30 29 31 30 27 22 22 25 27 27 27 26 25 24 23 22 22 22 23 22 22 22 22 21 20 20 20 19 20 21 20 19 19 19 20 20 20 20 21 22 23 25 24 24 23 24 26 27 28 28 27
32 31 31 30 27 24 23 23 23 22 22 23 25 26 26 28 31 33 35 36 36 37 39 40 38 38 38 35 34 35 32 34 39 36 31 32 34 33 28 25 25 27 29 30 29 28 28 26 24 23 22 23 23 23 24 24 22 21 20 21 21 21 21 22 22 21 21 21 21 21 20 21 21 21 22 23 23 23 24 25 25 26 27 28 29
30 29 28 26 24 23 22 22 21 21 21 23 24 24 25 28 30 32 33 33 34 36 37 38 37 38 39 35 32 35 36 36 40 39 35 34 35 34 30 28 28 30 31 31 30 30 28 27 25 23 23 23 24 24 25 25 23 21 21 22 22 22 22 22 22 23 23 23 22 21 21 21 21 21 21 21 21 23 24 25 25 25 26 27 28
25 23 23 23 22 21 20 18 16 15 15 16 17 19 22 25 28 30 31 31 33 35 36 37 38 39 40 36 32 33 34 36 42 42 38 36 35 32 30 29 30 32 32 31 31 30 28 26 25 24 24 24 25 25 25 26 25 23 22 23 24 24 24 24 23 24 24 24 23 22 21 21 21 21 19 19 21 22 23 25 26 26 26 26 27
20 18 18 18 17 14 10 7 5 4 6 7 9 12 16 21 25 28 30 31 32 34 36 37 38 39 41 36 31 30 30 34 40 41 38 35 31 27 28 29 30 32 33 32 31 29 27 25 25 25 26 26 26 25 25 26 25 24 24 24 24 26 27 27 26 25 25 25 24 22 21 22 22 21 19 19 21 22 24 26 27 26 26 27 26
15 14 11 9 8 7 6 4 3 2 4 6 7 9 12 16 20 23 27 30 32 34 36 36 37 39 39 33 28 27 28 32 37 40 38 34 29 27 28 29 29 31 33 32 31 29 26 25 25 25 25 27 28 26 26 26 25 24 25 25 26 28 29 30 29 28 28 28 24 21 20 22 21 20 20 20 21 23 25 26 26 26 26 27 25
11 10 9 9 8 8 7 5 3 2 4 6 9 11 12 13 16 19 24 27 30 32 33 33 36 38 36 31 28 28 30 32 36 41 41 35 28 25 26 26 26 28 31 31 30 27 26 26 26 26 25 26 28 27 26 26 25 25 26 27 28 29 30 31 31 31 32 29 22 18 19 21 20 20 20 20 22 24 25 25 26 26 26 26 25
13 13 12 9 7 6 5 4 2 1 3 6 9 10 11 12 14 17 20 23 25 28 29 31 35 36 33 31 28 28 30 31 34 39 39 32 23 19 19 20 21 23 25 26 25 24 24 24 24 25 25 26 27 25 24 24 25 25 27 29 30 30 29 29 30 33 35 30 23 22 21 20 20 20 20 20 22 24 25 25 25 26 25 24 24
14 13 10 7 5 4 4 5 5 4 3 5 7 7 8 9 12 14 16 19 21 25 27 30 33 33 32 31 28 27 30 31 33 36 33 27 21 17 16 17 19 19 19 19 19 20 21 22 22 23 24 24 25 24 22 22 23 23 25 29 29 26 25 25 26 30 31 26 22 22 21 19 19 20 20 21 23 24 24 25 25 24 23 24 24
10 9 8 6 3 2 3 4 5 5 4 4 5 5 5 6 9 11 13 16 19 22 25 28 29 31 32 30 26 27 30 31 35 38 34 27 23 20 18 18 18 15 14 15 17 18 20 21 22 22 23 23 23 23 22 21 21 20 21 23 23 20 20 21 22 25 26 23 20 20 18 18 19 20 20 21 23 24 24 24 23 23 23 23 24
9 9 7 5 3 2 2 3 4 4 3 3 3 4 4 5 7 10 12 16 18 19 22 25 27 30 31 28 24 25 27 29 31 35 34 31 28 24 22 19 15 13 14 16 17 18 19 21 21 22 22 22 22 23 23 21 20 18 18 19 19 18 19 20 21 23 23 22 19 17 17 18 19 19 20 21 23 23 23 24 23 23 22 22 22
10 8 6 4 4 4 5 4 3 2 3 3 3 4 5 6 8 10 12 15 17 17 20 22 25 27 28 26 22 19 21 24 28 30 31 32 31 28 23 17 13 13 15 16 17 18 19 21 21 21 21 22 23 24 23 21 19 18 19 19 18 18 19 20 21 22 23 21 19 18 17 18 19 19 20 21 22 22 23 24 24 22 21 21 20
8 6 5 3 3 5 5 4 3 4 5 5 5 4 5 7 8 9 11 13 15 16 18 20 22 23 24 23 20 17 17 22 27 29 29 30 29 26 19 13 12 15 16 17 18 19 20 21 21 21 21 22 22 22 21 20 19 19 20 19 18 17 19 20 21 22 22 21 19 18 18 19 19 20 21 21 21 23 24 24 22 20 19 19 20
5 4 3 3 3 4 5 5 6 7 7 7 6 6 6 8 8 9 10 12 14 14 15 16 17 19 20 20 18 16 17 21 26 28 27 24 22 17 13 13 15 17 18 19 19 19 20 20 20 21 21 21 21 21 20 19 19 20 20 19 18 17 18 19 20 21 20 19 18 18 19 19 19 21 21 22 22 22 21 19 18 17 17 18 19
5 4 3 3 3 4 4 5 6 7 7 7 7 7 8 8 9 9 10 11 11 12 12 13 15 17 17 17 16 16 17 20 24 24 20 16 13 12 13 16 18 18 19 19 19 18 18 19 19 20 21 21 20 19 18 17 18 19 20 19 18 17 17 16 16 17 17 17 18 19 19 20 19 20 20 20 19 18 16 15 15 16 17 18 20
6 5 5 6 7 7 6 6 6 6 6 7 8 8 8 8 8 8 7 8 10 10 11 12 15 15 13 14 16 17 18 19 19 16 13 11 11 12 15 17 19 19 19 18 17 18 18 19 20 21 21 20 18 16 16 17 17 18 19 18 17 16 16 15 14 13 14 15 17 19 20 20 19 17 18 17 16 15 14 14 15 16 18 20 20
6 4 4 6 7 7 7 7 7 7 7 8 7 7 7 7 7 6 6 7 9 11 12 13 14 14 14 16 18 17 17 16 13 11 10 11 12 13 16 18 19 18 17 16 17 18 18 20 21 21 20 18 15 14 15 16 17 17 18 17 16 16 15 13 11 11 13 16 18 19 19 18 16 15 15 15 15 14 14 15 16 17 18 19 19
6 5 4 5 6 6 7 7 7 8 8 7 6 6 7 7 7 7 7 8 10 12 14 14 14 14 14 14 12 10 9 8 7 6 8 11 13 15 17 18 16 15 15 16 17 18 19 20 19 18 16 15 14 13 14 15 16 17 17 16 16 14 12 11 11 12 14 15 16 17 16 15 13 13 14 14 14 14 15 16 17 17 17 18 20
7 5 4 5 5 5 6 7 8 8 8 7 6 7 7 8 8 9 9 11 13 14 14 14 14 13 12 9 6 5 5 7 9 11 13 15 17 18 17 16 15 15 15 16 17 18 18 17 16 15 14 14 14 14 15 16 16 16 16 15 14 12 10 11 12 13 14 14 14 15 14 12 11 12 13 14 14 15 16 16 16 17 18 20 20
Wind_Direction
213 213 213 214 216 215 213 212 212 211 210 209 208 208 211 211 212 213 211 211 211 211 211 213 215 219 222 224 228 230 231 236 239 243 248 254 262 268 268 266 263 261 264 267 268 273 276 280 284 286 286 284 287 293 297 299 299 299 299 298 298 295 295 294 295 299 301 300 295 291 295 295 292 292 288 288 292 296 299 300 293 282 274 272 272
216 217 217 217 218 219 219 217 216 215 212 211 210 208 209 210 211 210 207 207 208 209 211 214 217 221 225 229 234 235 237 241 245 249 252 258 265 267 267 263 259 261 268 273 277 282 284 288 293 293 291 291 294 298 300 300 299 301 303 303 304 302 301 300 303 307 309 314 312 307 308 302 296 295 287 288 298 299 300 301 300 295 286 280 280
219 219 218 219 219 220 222 221 220 218 215 213 211 208 208 209 209 207 206 208 209 210 213 217 222 225 230 237 242 245 247 248 250 253 254 260 263 264 266 261 259 266 273 278 282 286 290 293 295 295 295 299 302 303 304 302 300 303 305 308 307 307 309 310 314 315 315 323 326 325 324 321 312 293 290 310 306 301 307 313 316 316 312 306 301
218 219 219 219 220 221 222 222 221 219 217 216 212 210 210 210 209 207 207 211 213 215 217 220 225 230 235 239 244 247 249 249 251 253 254 258 259 260 262 258 260 269 274 278 281 283 287 289 290 291 294 300 301 298 298 296 296 299 303 307 309 313 317 317 320 321 322 327 332 330 326 330 340 321 322 325 310 304 321 323 322 323 321 320 318
217 219 220 220 220 221 221 221 221 220 218 216 213 211 212 212 211 211 211 214 217 219 221 223 224 228 232 235 238 240 242 244 247 250 253 256 257 259 258 257 261 267 271 273 275 280 283 286 288 289 294 299 296 294 294 294 297 301 305 311 313 317 319 320 324 326 327 329 329 329 326 330 330 325 330 336 323 317 320 321 324 325 326 325 323
219 220 220 219 220 220 220 220 220 220 217 215 215 214 215 216 214 214 215 216 219 221 223 225 226 228 230 231 232 233 237 241 246 251 254 257 260 260 257 258 261 263 266 267 273 281 284 286 287 288 295 296 292 297 299 299 303 306 310 315 316 318 320 324 329 331 330 326 322 322 317 311 315 322 328 327 321 323 329 335 333 332 330 328 326
219 220 220 219 220 220 219 219 218 219 217 215 215 215 217 219 218 217 219 220 221 222 224 225 227 229 231 233 233 234 238 243 250 254 255 257 259 259 259 260 261 261 264 268 274 280 281 283 284 288 295 292 287 294 299 301 303 306 308 310 314 321 325 327 330 331 327 322 321 318 311 304 308 316 319 321 325 329 344 345 339 347 345 334 338
217 217 218 220 220 219 218 218 218 218 218 216 216 216 218 220 220 220 222 223 224 224 225 226 228 230 231 232 233 235 240 246 252 256 258 259 259 261 262 261 261 263 268 272 275 276 277 280 282 287 290 284 283 291 298 302 301 301 301 305 315 320 323 324 324 324 320 321 321 317 313 308 309 311 312 318 318 321 338 352 349 9 20 351 355
217 216 217 219 220 220 220 219 219 219 218 218 218 218 219 220 221 222 224 226 226 226 226 226 228 230 231 232 232 235 240 244 249 254 257 260 261 262 262 262 264 269 272 274 273 272 274 277 279 281 278 274 283 296 305 308 307 305 302 305 310 310 313 316 316 318 318 320 321 318 318 315 315 315 313 317 313 315 330 347 346 354 38 7 3
217 217 217 220 221 221 221 221 221 221 220 221 221 220 220 221 221 223 225 227 228 227 226 225 226 228 229 231 232 236 239 242 245 248 252 256 258 259 260 263 268 272 273 271 270 270 271 272 272 270 268 273 288 300 307 313 311 306 302 300 299 300 307 312 316 321 322 324 325 322 323 323 321 319 315 317 317 313 319 332 337 330 330 347 356
216 216 217 220 221 221 221 222 222 222 222 222 222 221 221 222 222 223 226 228 228 226 224 223 223 225 227 229 232 235 238 241 243 245 248 252 254 256 259 264 268 270 267 264 264 264 263 262 260 257 261 272 286 295 300 305 302 295 290 286 287 294 301 309 317 321 321 324 323 321 323 326 322 318 318 317 315 311 310 318 322 317 317 327 336
214 215 216 217 218 218 219 221 222 222 222 222 222 222 222 223 223 224 226 226 226 225 223 222 222 224 226 228 232 234 236 240 242 245 249 251 253 255 257 260 262 260 255 254 256 257 256 251 247 248 254 263 272 280 288 292 288 281 277 275 279 287 294 303 309 311 313 314 312 314 318 321 317 312 313 313 310 304 302 309 312 309 311 315 321
213 213 215 215 215 216 217 219 220 220 222 223 222 222 223 223 224 226 227 225 224 223 223 222 222 223 225 227 229 231 234 237 240 245 248 251 252 253 255 256 255 252 249 251 254 257 256 248 242 243 247 253 259 267 277 281 278 273 270 271 275 281 287 294 298 301 304 302 301 305 308 312 310 306 305 304 304 301 299 303 304 303 306 310 314
213 213 214 214 215 216 218 219 220 220 222 222 222 222 223 224 225 227 227 224 223 223 223 223 224 224 226 227 228 230 232 234 237 240 243 246 248 250 251 252 250 248 249 253 256 258 255 247 242 242 243 248 252 258 267 271 271 269 267 268 271 274 279 285 290 294 297 297 297 299 301 305 305 302 301 298 297 297 298 300 299 299 301 304 308
211 213 214 214 215 217 218 219 220 221 222 222 222 222 223 224 226 227 225 223 222 223 224 224 225 225 226 226 227 229 231 232 233 236 238 240 242 243 244 243 243 244 247 250 251 252 251 244 238 237 239 244 250 256 260 263 266 265 264 265 266 269 272 276 281 285 289 292 294 295 296 299 301 299 297 295 293 291 293 294 295 298 300 302 304
210 212 213 215 215 217 218 219 221 222 222 222 222 223 224 226 227 227 224 222 223 224 225 225 226 226 226 225 226 228 228 229 229 230 232 233 235 236 236 236 236 238 242 244 245 246 243 236 232 233 237 242 248 253 257 259 262 262 262 264 265 266 268 269 273 277 281 286 289 291 292 293 294 293 293 293 291 289 289 288 289 294 298 302 304
210 212 214 214 214 215 218 219 221 222 222 223 224 225 226 227 227 225 223 223 223 225 226 226 226 226 226 224 224 225 225 225 225 226 228 229 229 230 229 229 230 233 236 239 241 241 236 229 229 231 236 243 248 251 254 256 260 262 264 266 266 266 267 267 268 271 275 280 284 287 289 290 290 291 293 294 293 292 290 287 286 288 293 297 300
212 213 214 214 213 215 217 219 222 223 224 225 225 225 226 227 228 225 223 222 223 225 226 226 226 226 225 223 222 221 222 223 222 223 225 226 226 227 225 224 226 229 232 234 236 235 231 225 222 225 233 240 243 244 247 249 256 263 266 268 268 266 268 269 268 270 272 275 280 284 286 288 290 291 293 294 295 294 292 288 284 283 286 291 296
211 212 213 214 214 216 217 219 221 224 226 227 226 226 227 228 228 227 225 224 225 225 226 226 226 226 225 222 220 219 220 220 219 220 222 223 225 225 223 223 226 228 229 229 231 231 225 217 214 218 223 223 223 225 232 242 257 270 277 281 278 272 270 270 269 271 273 275 278 281 283 286 287 288 289 290 292 293 293 291 286 283 284 286 290
210 211 213 214 215 217 218 220 222 224 226 226 226 227 227 227 227 227 226 225 226 227 227 226 226 227 227 224 221 220 219 218 217 218 221 223 224 223 222 224 226 229 229 228 229 227 219 213 214 216 212 212 219 227 236 248 259 269 279 287 288 283 279 277 272 270 271 274 277 278 280 283 285 285 286 287 288 288 289 290 288 286 285 286 288
210 212 213 215 216 217 219 221 223 224 224 224 225 226 226 227 227 227 226 225 226 227 227 227 226 227 227 226 224 222 222 220 218 218 221 223 223 220 219 223 226 229 229 228 230 224 215 214 218 218 217 221 229 235 243 253 262 267 271 278 284 289 293 293 283 273 269 272 275 277 279 283 286 288 289 288 287 286 286 286 287 287 286 287 288
212 214 216 216 216 217 218 220 221 221 222 224 225 226 226 227 227 227 227 226 226 227 227 226 226 225 225 223 222 222 222 222 220 218 220 222 220 217 218 222 226 229 231 231 230 222 217 220 223 225 227 232 237 243 249 256 264 268 271 275 280 285 291 296 292 281 273 271 272 275 278 283 287 288 289 289 288 287 284 283 284 285 286 286 287
215 217 218 218 217 217 217 218 219 221 223 225 226 226 227 227 227 227 227 226 227 228 227 226 226 226 225 222 220 220 221 221 221 219 220 221 217 214 217 223 228 232 234 233 228 223 223 226 228 231 234 240 247 252 254 257 263 268 272 275 278 280 283 289 293 289 280 273 272 274 278 283 285 285 287 288 289 288 286 284 284 283 284 285 285
217 218 218 217 216 216 215 217 219 221 224 226 226 227 228 228 228 228 227 227 227 228 227 227 226 226 226 223 219 219 219 219 219 218 218 218 215 213 217 222 228 233 235 233 228 226 228 231 234 238 243 250 256 259 260 261 263 267 272 276 278 278 278 283 289 290 284 276 272 274 278 281 283 285 288 290 291 292 291 288 286 285 284 284 285
216 215 215 214 215 215 216 218 221 223 226 227 227 228 229 229 230 230 230 228 228 229 229 228 227 227 227 224 220 219 218 216 216 216 215 214 212 211 213 217 224 230 232 232 230 229 233 238 243 249 253 258 263 265 265 266 268 271 274 277 277 275 274 278 282 283 280 275 272 274 278 281 284 288 290 292 293 295 295 292 289 287 285 283 283
214 213 214 215 216 217 219 221 223 225 227 227 228 229 230 231 232 232 232 230 229 230 231 230 229 227 226 224 220 219 218 214 215 216 213 210 210 208 206 212 224 230 231 231 233 235 240 246 251 255 258 262 266 269 270 272 275 275 275 276 276 274 273 274 276 276 274 273 272 274 277 280 285 291 293 293 294 296 296 295 292 290 287 285 286
213 213 215 216 217 220 222 224 226 227 228 229 230 232 232 233 234 234 233 231 230 231 233 233 231 228 227 225 221 219 217 216 216 217 213 209 209 206 202 209 226 232 232 232 233 238 245 251 255 257 259 264 268 270 273 275 277 277 277 279 280 278 275 274 273 271 270 271 272 273 276 279 286 293 295 296 296 296 296 296 295 293 290 289 291
213 214 216 217 218 221 224 226 228 229 230 231 233 234 235 236 236 235 233 232 232 233 234 234 233 230 228 224 216 213 217 221 223 222 216 210 209 205 202 215 234 234 227 222 222 233 243 249 253 255 259 265 268 270 274 276 277 279 280 283 284 281 278 275 271 269 268 269 270 271 274 279 285 291 294 296 296 296 297 297 297 296 294 293 295
213 215 217 218 220 224 227 230 232 232 233 234 235 236 236 236 237 235 234 234 234 235 235 236 234 229 222 214 205 205 214 223 226 226 219 212 209 205 205 224 244 234 220 216 218 230 239 244 250 255 260 265 268 271 276 278 278 280 281 283 284 281 278 274 270 269 268 267 269 272 276 281 284 286 289 292 295 296 296 296 297 296 294 295 296
214 216 218 221 225 229 232 234 235 236 238 239 239 239 238 239 239 238 237 236 237 238 237 233 225 215 212 213 208 205 210 215 220 221 217 213 209 206 210 230 246 230 216 217 222 229 235 241 248 254 260 264 268 271 275 277 277 277 277 277 277 276 273 270 267 265 265 266 270 275 280 283 283 282 283 287 292 294 294 294 295 294 293 294 296
213 216 219 224 228 230 233 235 238 241 244 244 245 245 243 243 242 242 241 240 239 236 229 220 215 217 222 219 212 209 211 213 215 216 215 212 208 207 216 236 245 229 220 222 227 231 235 241 247 254 260 264 268 271 272 274 273 271 271 271 272 272 268 264 262 261 264 269 274 279 283 284 282 280 281 284 288 292 292 291 291 290 290 291 293
211 215 218 222 224 227 230 235 241 245 247 249 250 248 246 247 248 247 245 242 236 228 222 222 225 228 226 217 212 215 214 212 215 218 216 211 207 210 222 234 230 222 224 228 231 234 237 242 246 253 260 264 269 272 271 271 270 267 265 266 269 269 265 263 262 262 266 271 276 281 285 286 284 280 279 281 285 289 292 291 288 287 287 288 289
212 214 214 216 219 224 229 235 242 246 249 253 253 252 253 254 253 250 245 238 230 225 227 229 228 226 224 218 216 217 211 207 215 222 219 212 211 215 226 237 230 223 227 232 235 238 241 243 247 253 260 266 271 273 272 269 268 264 261 260 263 264 264 264 264 265 267 270 274 280 285 288 286 281 277 280 284 288 292 291 288 285 284 286 287
212 213 213 215 218 223 228 234 241 245 249 251 252 255 258 256 252 248 243 235 228 226 230 230 227 225 223 220 217 215 211 207 211 216 214 213 216 220 229 242 240 230 230 234 239 242 244 246 250 255 261 268 272 273 273 270 268 264 259 258 259 260 262 264 265 266 268 271 274 279 285 289 288 282 278 279 282 287 290 289 288 286 285 285 285
211 213 213 212 213 219 227 234 242 249 254 256 258 259 258 254 250 246 240 232 227 227 229 230 229 227 223 223 222 219 217 212 208 207 208 211 217 222 231 243 242 233 232 238 243 247 250 252 256 260 264 270 273 275 274 271 269 266 260 257 258 259 260 261 264 267 268 271 274 278 283 288 288 283 279 278 281 285 287 289 289 288 287 287 286
212 210 206 206 212 222 232 241 250 257 263 266 266 264 260 255 249 243 237 231 228 229 230 230 232 231 227 228 229 226 223 218 211 206 205 208 216 225 235 243 242 237 237 243 247 250 253 256 260 263 267 272 276 277 275 273 273 271 266 263 263 263 262 261 262 265 268 272 274 274 279 286 287 283 277 275 279 283 287 290 291 290 289 288 287
206 204 204 209 218 224 227 233 245 263 276 279 271 263 256 252 248 242 237 233 230 230 232 235 240 241 235 231 233 230 223 217 213 208 205 209 218 229 236 239 241 240 242 246 250 253 257 261 264 267 270 274 278 280 279 277 276 275 273 272 270 268 268 267 266 266 269 272 270 267 274 284 286 282 277 274 277 283 289 292 292 291 289 287 287
192 195 196 192 188 172 148 135 109 42 334 319 300 280 263 251 247 243 238 235 234 236 240 245 249 245 235 229 230 226 214 211 212 209 207 212 221 228 232 236 242 245 245 248 252 257 262 265 268 272 276 278 279 279 280 280 279 277 276 275 275 274 272 271 271 271 269 268 263 259 270 281 281 278 275 275 279 285 290 293 293 292 288 287 290
154 155 146 137 137 130 123 125 111 52 351 333 314 299 286 271 259 251 245 243 243 246 250 252 248 240 232 229 228 218 208 208 209 208 210 216 223 228 233 240 248 250 250 251 255 261 267 270 272 276 280 280 281 282 283 282 282 281 279 278 278 277 276 276 276 273 271 270 266 266 274 277 274 273 273 276 283 289 292 294 294 291 289 290 292
128 131 133 132 139 145 149 165 181 315 340 333 320 309 301 290 275 262 257 256 257 257 256 251 243 235 231 232 227 213 206 207 208 207 210 215 220 229 238 247 255 255 251 252 256 264 272 278 280 283 284 284 286 288 289 287 285 284 282 279 276 276 279 282 280 279 280 279 272 273 278 274 270 271 272 278 287 292 293 295 294 291 291 291 291
132 133 135 136 152 179 197 213 227 251 300 321 316 309 307 297 283 274 272 270 266 259 253 247 241 235 231 231 227 213 206 207 207 207 209 215 224 238 251 257 258 252 248 255 265 272 281 287 290 290 289 287 289 292 293 291 287 286 287 287 287 285 283 284 284 287 291 287 273 274 279 273 267 269 273 282 291 294 295 296 295 293 291 288 288
132 126 127 128 142 188 217 232 245 268 292 305 304 302 309 304 292 288 284 276 266 258 252 246 240 233 229 228 227 219 210 208 211 213 215 221 231 244 258 260 255 252 258 271 279 284 288 290 290 290 289 290 293 295 296 292 287 287 291 295 298 295 288 287 289 292 294 290 281 278 275 266 265 271 278 288 295 296 297 298 295 290 286 285 287
105 101 105 97 67 12 317 296 295 298 295 298 304 301 306 305 296 290 284 275 267 259 253 246 238 233 228 223 223 222 215 212 216 219 222 226 232 245 258 258 255 262 272 276 280 284 286 286 286 287 288 291 294 295 294 291 287 287 289 289 290 288 287 291 293 290 289 288 283 274 264 261 266 272 282 291 296 297 298 296 292 287 284 285 289
79 76 77 63 26 1 356 343 322 304 285 281 288 288 291 297 294 288 281 274 266 256 249 242 236 233 229 221 217 218 216 215 219 222 223 226 234 247 256 256 259 269 272 274 278 281 283 284 286 288 287 289 292 291 290 288 286 286 285 283 283 286 289 291 290 287 285 282 276 268 264 264 267 272 282 292 295 297 298 294 290 287 287 290 295
62 54 43 26 9 359 357 347 323 311 301 292 287 285 288 291 290 284 275 268 262 251 242 236 232 230 226 221 217 215 215 218 221 221 221 227 238 249 253 255 265 268 268 271 274 276 280 284 285 285 285 287 288 287 286 285 285 285 283 281 283 286 287 286 285 284 284 279 272 269 268 268 269 273 281 290 293 295 295 293 291 290 290 293 299
63 46 23 7 358 343 333 328 323 317 310 302 292 284 286 286 282 276 267 261 255 245 236 231 226 220 218 218 218 215 216 219 220 220 223 232 241 247 251 256 261 261 262 267 270 274 279 281 281 282 283 285 285 286 286 286 285 283 282 282 283 283 282 282 282 281 281 278 273 272 273 273 274 277 284 292 293 293 293 292 291 291 292 297 303
61 39 18 341 314 307 310 318 320 314 310 302 288 281 285 284 276 271 264 256 245 234 228 219 207 202 206 210 209 207 211 218 221 223 230 239 242 243 251 255 255 257 262 266 270 274 277 277 278 280 283 284 285 286 288 286 283 282 283 283 282 280 279 280 280 278 277 274 273 276 278 278 278 283 291 296 295 295 296 294 292 293 298 304 308
60 40 13 348 330 326 328 325 316 310 307 299 288 283 283 278 271 264 255 242 229 219 212 202 196 197 204 205 203 204 209 217 225 230 235 238 239 244 251 253 254 259 265 269 273 276 276 277 280 282 282 283 285 287 288 287 286 287 288 288 287 284 282 281 278 275 272 271 274 278 282 284 288 294 297 297 296 298 298 296 296 301 305 308 308
66 47 11 345 331 332 335 327 314 307 302 295 288 280 269 261 255 242 221 210 210 207 201 198 201 204 204 201 201 206 212 218 226 235 242 245 248 253 256 257 259 263 267 270 273 275 276 279 280 280 280 282 286 290 291 291 292 292 292 292 289 286 283 281 276 270 267 270 275 281 288 295 300 301 299 296 296 297 295 294 298 302 304 305 306
76 57 19 348 338 338 332 316 303 297 292 285 276 259 245 238 232 219 202 191 191 193 191 191 194 193 188 189 197 207 213 215 222 239 255 263 267 266 263 261 263 264 266 269 271 273 275 277 277 277 281 286 293 297 295 294 294 293 292 291 289 285 284 282 275 270 271 274 281 288 294 297 297 294 294 293 291 290 291 295 299 303 304 307 309
70 56 24 356 346 334 319 307 298 291 284 277 261 237 221 214 205 199 194 188 187 186 181 177 177 173 165 159 153 157 182 211 226 235 242 251 261 266 264 260 262 265 267 268 270 271 273 275 278 282 288 293 298 300 299 297 296 294 292 291 289 283 275 268 268 272 276 279 282 287 288 286 282 284 288 288 287 289 293 298 303 306 307 309 310